No particular awareness of the weather is required.    There are no Weather-warnings


Meteo18 Weather Cam more information Meteo18 Weather Cam


Thunder radar more information blitzortung!


Rain radar more information rain snow radar


Visit our other weather sites:

Template documentation
and downloads

And another site



Weather Underground History page Text

Daily Summary for January 20, 2018 Units:  English    Metric   Both
« Previous Day
Next Day »
Daily Weekly Monthly Yearly Custom
  High: Low: Average:
Temperature: TemperatureC °F 2.1 °F 7.1 °F
Dew Point: DewpointC °F 1.1 °F 6 °F
Humidity: Humidity % 83 % 92 %
Wind Speed: WindSpeedKMH mph 0.0 mph 14.6 mph
Wind Gust: WindSpeedGustKMH mph - -
Wind:- - WSW
Pressure: PressurehPa in 1002.3 in -
Precipitation: 19.6 in    
Historical Graphs
 
 
Tabular Data for January 20, 2018
Time Temperature Dew Point Pressure Wind Wind Speed Wind Gust Humidity Rainfall Rate (Hourly)
TemperatureC °F DewpointC °F PressurehPa in Calm     Humidity % HourlyPrecipMM in
00:00 2.9 °F 1.4 °F 1018.2 in West 4.7 mph 12.9 mph 90 % 0.0 in
00:06 2.8 °F 1.3 °F 1018.2 in SW 7.9 mph 11.3 mph 90 % 0.0 in
00:12 2.7 °F 1.2 °F 1018.2 in WSW 11.1 mph 12.9 mph 90 % 0.0 in
00:18 2.7 °F 1.4 °F 1018.2 in SW 3.2 mph 9.7 mph 91 % 0.0 in
00:24 2.6 °F 1.3 °F 1018.2 in SW 11.1 mph 12.9 mph 91 % 0.0 in
00:30 2.6 °F 1.3 °F 1018.2 in WSW 6.4 mph 11.3 mph 91 % 0.0 in
00:36 2.6 °F 1.3 °F 1018.2 in WSW 13.0 mph 16.1 mph 91 % 0.0 in
00:42 2.6 °F 1.3 °F 1018.2 in WSW 11.1 mph 14.5 mph 91 % 0.0 in
00:48 2.7 °F 1.4 °F 1018.2 in WSW 7.9 mph 16.1 mph 91 % 0.0 in
00:54 2.7 °F 1.4 °F 1018.2 in West 13.0 mph 17.7 mph 91 % 0.0 in
01:00 2.7 °F 1.4 °F 1018.2 in WSW 11.1 mph 16.1 mph 91 % 0.0 in
01:06 2.7 °F 1.4 °F 1017.8 in SW 11.1 mph 11.3 mph 91 % 0.0 in
01:12 2.6 °F 1.3 °F 1017.8 in WSW 6.4 mph 12.9 mph 91 % 0.0 in
01:18 2.5 °F 1.3 °F 1017.8 in WSW 1.4 mph 12.9 mph 92 % 0.0 in
01:24 2.5 °F 1.3 °F 1017.8 in WSW 7.9 mph 11.3 mph 92 % 0.0 in
01:30 2.4 °F 1.2 °F 1017.8 in SW 4.7 mph 9.7 mph 92 % 0.0 in
01:36 2.4 °F 1.2 °F 1017.8 in SSE 1.4 mph 12.9 mph 92 % 0.0 in
01:42 2.4 °F 1.2 °F 1017.8 in SW 9.7 mph 14.5 mph 92 % 0.0 in
01:48 2.3 °F 1.1 °F 1017.8 in SSW 3.2 mph 12.9 mph 92 % 0.0 in
01:54 2.3 °F 1.1 °F 1017.5 in SW 4.7 mph 9.7 mph 92 % 0.0 in
02:00 2.2 °F 1.2 °F 1017.5 in SW 9.7 mph 12.9 mph 93 % 0.0 in
02:06 2.1 °F 1.1 °F 1017.5 in WSW 4.7 mph 11.3 mph 93 % 0.0 in
02:12 2.1 °F 1.1 °F 1017.5 in SW 6.4 mph 9.7 mph 93 % 0.0 in
02:18 2.1 °F 1.2 °F 1017.5 in SSW 3.2 mph 14.5 mph 94 % 0.0 in
02:24 2.1 °F 1.1 °F 1017.5 in SW 3.2 mph 8.0 mph 93 % 0.0 in
02:30 2.2 °F 1.3 °F 1017.5 in SSW 6.4 mph 9.7 mph 94 % 0.0 in
02:36 2.2 °F 1.3 °F 1017.5 in SW 4.7 mph 6.4 mph 94 % 0.0 in
02:42 2.3 °F 1.4 °F 1017.2 in WSW 6.4 mph 11.3 mph 94 % 0.0 in
02:48 2.3 °F 1.4 °F 1017.2 in SW 9.7 mph 9.7 mph 94 % 0.0 in
02:54 2.3 °F 1.4 °F 1017.2 in SW 4.7 mph 11.3 mph 94 % 0.0 in
03:00 2.4 °F 1.5 °F 1017.2 in South 4.7 mph 11.3 mph 94 % 0.0 in
03:06 2.4 °F 1.5 °F 1017.2 in SW 4.7 mph 9.7 mph 94 % 0.0 in
03:12 2.4 °F 1.5 °F 1017.2 in WSW 13.0 mph 13.0 mph 94 % 0.0 in
03:18 2.5 °F 1.6 °F 1017.2 in SSW 3.2 mph 16.1 mph 94 % 0.0 in
03:24 2.6 °F 1.7 °F 1017.2 in Calm   8.0 mph 94 % 0.0 in
03:30 2.4 °F 1.4 °F 1017.2 in SSW 4.7 mph 8.0 mph 93 % 0.0 in
03:36 2.4 °F 1.5 °F 1017.2 in SSW 6.4 mph 9.7 mph 94 % 0.0 in
03:42 2.4 °F 1.5 °F 1017.2 in SSW 4.7 mph 9.7 mph 94 % 0.0 in
03:48 2.4 °F 1.5 °F 1017.2 in SW 3.2 mph 6.4 mph 94 % 0.0 in
03:54 2.4 °F 1.5 °F 1016.8 in SSW 3.2 mph 8.0 mph 94 % 0.0 in
04:00 2.4 °F 1.7 °F 1016.8 in SSW 9.7 mph 9.7 mph 95 % 0.0 in
04:06 2.5 °F 1.8 °F 1016.8 in SSW 3.2 mph 8.0 mph 95 % 0.0 in
04:12 2.6 °F 1.9 °F 1016.8 in South 1.4 mph 11.3 mph 95 % 0.0 in
04:18 2.7 °F 2.0 °F 1016.5 in SW 6.4 mph 11.3 mph 95 % 0.0 in
04:24 2.7 °F 2.0 °F 1016.5 in SSW 6.4 mph 11.3 mph 95 % 0.0 in
04:30 2.7 °F 2.0 °F 1016.5 in WSW 9.7 mph 14.5 mph 95 % 0.0 in
04:36 2.7 °F 2.0 °F 1016.1 in SW 9.7 mph 14.5 mph 95 % 0.0 in
04:42 2.8 °F 2.1 °F 1016.1 in SSW 4.7 mph 9.7 mph 95 % 0.0 in
04:48 2.8 °F 2.1 °F 1016.1 in SW 3.2 mph 8.0 mph 95 % 0.3 in
04:54 2.8 °F 2.1 °F 1016.1 in SSW 3.2 mph 14.5 mph 95 % 0.3 in
05:00 2.8 °F 2.1 °F 1016.1 in SW 4.7 mph 9.7 mph 95 % 0.3 in
05:06 2.9 °F 2.2 °F 1015.8 in SW 7.9 mph 16.1 mph 95 % 0.5 in
05:12 3.0 °F 2.4 °F 1015.8 in SW 11.1 mph 20.9 mph 96 % 0.5 in
05:18 3.1 °F 2.5 °F 1015.5 in SW 16.3 mph 16.3 mph 96 % 0.5 in
05:24 3.1 °F 2.5 °F 1015.5 in SW 13.0 mph 16.1 mph 96 % 0.5 in
05:30 3.2 °F 2.6 °F 1015.5 in SW 11.1 mph 14.5 mph 96 % 0.5 in
05:36 3.2 °F 2.6 °F 1015.1 in SW 4.7 mph 9.7 mph 96 % 0.8 in
05:42 3.3 °F 2.7 °F 1015.1 in WSW 4.7 mph 11.3 mph 96 % 0.8 in
05:48 3.4 °F 2.8 °F 1015.1 in SW 13.0 mph 14.5 mph 96 % 0.8 in
05:54 3.5 °F 2.9 °F 1014.8 in SSW 9.7 mph 17.7 mph 96 % 1.0 in
06:00 3.6 °F 3.0 °F 1014.4 in SW 11.1 mph 11.3 mph 96 % 1.0 in
06:06 3.6 °F 3.0 °F 1014.4 in SW 14.3 mph 14.5 mph 96 % 1.0 in
06:12 3.6 °F 3.0 °F 1014.4 in SSW 6.4 mph 16.1 mph 96 % 1.0 in
06:18 3.6 °F 3.0 °F 1014.4 in SSW 9.7 mph 16.1 mph 96 % 1.0 in
06:24 3.6 °F 3.0 °F 1014.1 in South 13.0 mph 17.7 mph 96 % 1.3 in
06:30 3.6 °F 3.0 °F 1014.1 in SSW 7.9 mph 19.3 mph 96 % 1.3 in
06:36 3.7 °F 3.1 °F 1014.1 in SW 11.1 mph 20.9 mph 96 % 1.3 in
06:42 3.7 °F 3.1 °F 1013.8 in SW 13.0 mph 19.3 mph 96 % 1.0 in
06:48 3.9 °F 3.3 °F 1013.8 in WSW 17.7 mph 22.5 mph 96 % 1.0 in
06:54 4.0 °F 3.4 °F 1013.4 in SW 13.0 mph 22.5 mph 96 % 1.0 in
07:00 4.1 °F 3.5 °F 1013.4 in SW 14.3 mph 19.3 mph 96 % 1.3 in
07:06 4.2 °F 3.5 °F 1013.4 in SW 17.7 mph 29.0 mph 95 % 1.3 in
07:13 4.1 °F 3.4 °F 1013.1 in SW 16.3 mph 20.9 mph 95 % 1.3 in
07:19 4.2 °F 3.5 °F 1013.1 in SW 13.0 mph 20.9 mph 95 % 1.3 in
07:25 4.2 °F 3.5 °F 1012.8 in SW 14.3 mph 25.7 mph 95 % 1.3 in
07:31 4.3 °F 3.6 °F 1012.8 in SW 14.3 mph 24.1 mph 95 % 1.5 in
07:37 4.3 °F 3.7 °F 1012.8 in SW 13.0 mph 29.0 mph 96 % 1.3 in
07:43 4.3 °F 3.7 °F 1012.4 in SSW 13.0 mph 24.1 mph 96 % 1.5 in
07:49 4.3 °F 3.7 °F 1012.4 in South 16.3 mph 24.1 mph 96 % 1.3 in
07:55 4.3 °F 3.7 °F 1012.1 in SSW 14.3 mph 19.3 mph 96 % 1.5 in
08:01 4.3 °F 3.7 °F 1011.7 in South 16.3 mph 25.7 mph 96 % 1.3 in
08:07 4.4 °F 3.8 °F 1011.7 in SW 19.5 mph 20.9 mph 96 % 1.3 in
08:13 4.4 °F 3.8 °F 1011.4 in SSW 13.0 mph 20.9 mph 96 % 1.0 in
08:19 4.4 °F 3.8 °F 1011.1 in South 9.7 mph 20.9 mph 96 % 1.3 in
08:25 4.4 °F 3.8 °F 1011.1 in SSW 19.5 mph 27.4 mph 96 % 1.3 in
08:31 4.4 °F 3.8 °F 1011.1 in SSW 17.7 mph 20.9 mph 96 % 1.3 in
08:33 4.4 °F 3.8 °F 1011.1 in SSW 20.9 mph 24.1 mph 96 % 1.3 in
08:39 4.4 °F 3.8 °F 1010.7 in SSW 24.1 mph 32.2 mph 96 % 1.5 in
08:45 4.4 °F 3.7 °F 1010.7 in SW 16.3 mph 22.5 mph 95 % 1.5 in
08:51 4.5 °F 3.8 °F 1010.7 in SSW 20.9 mph 25.7 mph 95 % 1.5 in
08:57 4.5 °F 3.8 °F 1010.4 in SSW 22.7 mph 32.2 mph 95 % 1.5 in
09:03 4.5 °F 3.8 °F 1010.4 in South 27.4 mph 30.6 mph 95 % 1.8 in
09:09 4.6 °F 3.9 °F 1010.0 in SSW 13.0 mph 25.7 mph 95 % 1.8 in
09:15 4.6 °F 3.9 °F 1010.0 in South 9.7 mph 20.9 mph 95 % 1.8 in
09:21 4.6 °F 3.9 °F 1009.7 in SSW 13.0 mph 22.5 mph 95 % 2.0 in
09:27 4.6 °F 3.9 °F 1009.7 in SW 25.9 mph 30.6 mph 95 % 2.0 in
09:33 4.7 °F 4.0 °F 1009.4 in SSW 22.7 mph 32.2 mph 95 % 2.3 in
09:39 4.7 °F 3.8 °F 1009.0 in SSW 16.3 mph 27.4 mph 94 % 2.3 in
09:45 4.7 °F 3.8 °F 1009.0 in SSW 27.4 mph 27.4 mph 94 % 2.5 in
09:51 4.7 °F 3.7 °F 1008.7 in SSE 16.3 mph 43.4 mph 93 % 3.0 in
09:57 4.6 °F 3.6 °F 1008.4 in SSE 22.7 mph 27.4 mph 93 % 3.3 in
10:03 4.6 °F 3.7 °F 1008.0 in SW 27.4 mph 30.6 mph 94 % 3.3 in
10:09 4.6 °F 3.6 °F 1008.0 in South 16.3 mph 24.1 mph 93 % 3.6 in
10:15 4.6 °F 3.6 °F 1007.7 in SSW 25.9 mph 33.8 mph 93 % 3.6 in
10:21 4.5 °F 3.5 °F 1007.3 in SW 22.7 mph 33.8 mph 93 % 3.8 in
10:27 4.3 °F 3.1 °F 1007.3 in SSW 19.5 mph 35.4 mph 92 % 4.1 in
10:33 4.3 °F 3.3 °F 1007.0 in South 24.1 mph 32.2 mph 93 % 4.1 in
10:39 4.2 °F 3.2 °F 1007.0 in SSW 16.3 mph 20.9 mph 93 % 4.1 in
10:45 4.2 °F 3.2 °F 1006.7 in South 22.7 mph 29.0 mph 93 % 3.8 in
10:51 4.2 °F 3.3 °F 1006.7 in SSW 16.3 mph 27.4 mph 94 % 3.6 in
10:57 4.2 °F 3.3 °F 1006.3 in SSE 7.9 mph 25.7 mph 94 % 3.6 in
11:03 4.2 °F 3.3 °F 1006.0 in South 16.3 mph 24.1 mph 94 % 3.6 in
11:09 4.2 °F 3.5 °F 1006.0 in SSW 19.5 mph 24.1 mph 95 % 3.3 in
11:15 4.2 °F 3.5 °F 1005.6 in South 14.3 mph 27.4 mph 95 % 3.3 in
11:21 4.3 °F 3.6 °F 1005.6 in SW 13.0 mph 25.7 mph 95 % 3.3 in
11:27 4.3 °F 3.6 °F 1005.3 in SSE 6.4 mph 25.7 mph 95 % 3.3 in
11:33 4.4 °F 3.7 °F 1005.3 in SE 17.7 mph 19.3 mph 95 % 3.0 in
11:39 4.5 °F 3.9 °F 1005.0 in South 16.3 mph 20.9 mph 96 % 3.0 in
11:45 4.6 °F 4.0 °F 1005.0 in SW 16.3 mph 20.9 mph 96 % 3.0 in
11:51 4.6 °F 4.0 °F 1004.6 in SSW 7.9 mph 19.3 mph 96 % 2.8 in
11:57 4.8 °F 4.2 °F 1004.6 in SW 14.3 mph 20.9 mph 96 % 2.5 in
12:03 4.9 °F 4.3 °F 1004.3 in South 11.1 mph 16.1 mph 96 % 2.3 in
12:09 4.9 °F 4.3 °F 1004.3 in SSW 17.7 mph 27.4 mph 96 % 2.0 in
12:15 5.1 °F 4.5 °F 1003.9 in SSW 17.7 mph 20.9 mph 96 % 2.0 in
12:21 5.2 °F 4.8 °F 1003.9 in SSW 14.3 mph 25.7 mph 97 % 1.5 in
12:27 5.3 °F 4.9 °F 1003.9 in SSW 9.7 mph 20.9 mph 97 % 1.5 in
12:33 5.5 °F 5.1 °F 1003.6 in SSW 13.0 mph 22.5 mph 97 % 1.5 in
12:39 5.6 °F 5.2 °F 1003.6 in SSW 9.7 mph 19.3 mph 97 % 1.3 in
12:45 5.7 °F 5.3 °F 1003.3 in SSW 11.1 mph 17.7 mph 97 % 1.0 in
12:51 6.0 °F 5.6 °F 1003.3 in SSW 13.0 mph 19.3 mph 97 % 0.8 in
12:57 6.1 °F 5.7 °F 1003.3 in SW 6.4 mph 17.7 mph 97 % 0.8 in
13:03 6.3 °F 5.9 °F 1002.9 in South 11.1 mph 16.1 mph 97 % 0.8 in
13:09 6.4 °F 6.0 °F 1003.3 in SW 3.2 mph 8.0 mph 97 % 0.8 in
13:15 6.9 °F 6.6 °F 1002.9 in SW 7.9 mph 14.5 mph 98 % 0.5 in
13:21 7.6 °F 7.3 °F 1002.9 in WSW 6.4 mph 19.3 mph 98 % 0.5 in
13:27 8.1 °F 7.8 °F 1002.6 in SW 4.7 mph 16.1 mph 98 % 0.5 in
13:33 8.6 °F 8.3 °F 1002.9 in West 7.9 mph 16.1 mph 98 % 0.5 in
13:39 9.1 °F 8.8 °F 1002.6 in WSW 9.7 mph 16.1 mph 98 % 0.5 in
13:45 9.4 °F 9.1 °F 1002.6 in WNW 9.7 mph 20.9 mph 98 % 0.5 in
13:51 9.8 °F 9.5 °F 1002.6 in WSW 22.7 mph 24.1 mph 98 % 0.5 in
13:57 10.0 °F 9.7 °F 1002.6 in WSW 17.7 mph 19.3 mph 98 % 0.3 in
14:03 10.2 °F 9.7 °F 1002.6 in WSW 13.0 mph 20.9 mph 97 % 0.3 in
14:09 10.3 °F 9.7 °F 1002.3 in WSW 13.0 mph 20.9 mph 96 % 0.3 in
14:15 10.5 °F 9.9 °F 1002.3 in West 13.0 mph 25.7 mph 96 % 0.3 in
14:21 10.7 °F 10.1 °F 1002.3 in West 14.3 mph 25.7 mph 96 % 0.3 in
14:27 10.8 °F 10.0 °F 1002.3 in WSW 11.1 mph 22.5 mph 95 % 0.3 in
14:33 10.9 °F 10.1 °F 1002.3 in WSW 28.8 mph 32.2 mph 95 % 0.0 in
14:39 11.2 °F 10.4 °F 1002.3 in WNW 11.1 mph 33.8 mph 95 % 0.3 in
14:45 11.3 °F 10.4 °F 1002.6 in West 17.7 mph 25.7 mph 94 % 0.3 in
14:51 11.4 °F 10.6 °F 1002.6 in NW 13.0 mph 29.0 mph 95 % 0.3 in
14:57 11.7 °F 10.6 °F 1002.6 in WSW 9.7 mph 32.2 mph 93 % 0.3 in
15:03 11.8 °F 10.7 °F 1002.6 in WSW 20.9 mph 25.7 mph 93 % 0.3 in
15:09 11.7 °F 10.6 °F 1002.9 in WSW 17.7 mph 25.7 mph 93 % 0.3 in
15:15 11.7 °F 10.8 °F 1002.9 in West 20.9 mph 32.2 mph 94 % 0.3 in
15:21 11.8 °F 10.7 °F 1002.9 in WSW 32.0 mph 38.6 mph 93 % 0.3 in
15:27 12.3 °F 10.5 °F 1002.6 in WNW 30.6 mph 41.8 mph 89 % 0.5 in
15:33 12.4 °F 10.5 °F 1002.9 in WNW 30.6 mph 32.2 mph 88 % 0.3 in
15:39 12.6 °F 10.7 °F 1002.9 in West 19.5 mph 33.8 mph 88 % 0.3 in
15:45 12.6 °F 10.7 °F 1002.9 in West 13.0 mph 27.4 mph 88 % 0.3 in
15:51 12.2 °F 10.6 °F 1002.9 in West 28.8 mph 30.6 mph 90 % 0.3 in
15:57 12.3 °F 10.5 °F 1002.9 in WNW 22.7 mph 40.2 mph 89 % 0.3 in
16:03 12.4 °F 10.6 °F 1003.3 in NW 16.3 mph 35.4 mph 89 % 0.3 in
16:09 12.3 °F 10.7 °F 1003.3 in West 17.7 mph 30.6 mph 90 % 0.3 in
16:15 12.4 °F 10.5 °F 1003.6 in West 24.1 mph 37.0 mph 88 % 0.3 in
16:21 12.4 °F 10.5 °F 1003.6 in WNW 14.3 mph 30.6 mph 88 % 0.3 in
16:27 12.3 °F 10.5 °F 1003.6 in West 27.4 mph 37.0 mph 89 % 0.0 in
16:34 12.1 °F 10.5 °F 1003.9 in WSW 20.9 mph 29.0 mph 90 % 0.0 in
16:40 11.9 °F 10.6 °F 1003.9 in West 13.0 mph 24.1 mph 92 % 0.0 in
16:46 12.0 °F 10.4 °F 1003.9 in WNW 22.7 mph 32.2 mph 90 % 0.0 in
16:52 12.0 °F 10.6 °F 1003.9 in WSW 14.3 mph 37.0 mph 91 % 0.0 in
16:58 12.1 °F 10.5 °F 1004.3 in WNW 20.9 mph 35.4 mph 90 % 0.0 in
17:04 12.1 °F 10.3 °F 1004.3 in NW 19.5 mph 32.2 mph 89 % 0.0 in
17:10 12.2 °F 10.3 °F 1004.3 in West 17.7 mph 32.2 mph 88 % 0.0 in
17:16 12.3 °F 10.4 °F 1004.3 in West 22.7 mph 40.2 mph 88 % 0.0 in
17:22 12.2 °F 10.3 °F 1004.6 in West 13.0 mph 29.0 mph 88 % 0.0 in
17:28 12.1 °F 10.3 °F 1004.6 in WNW 19.5 mph 24.1 mph 89 % 0.0 in
17:34 11.8 °F 10.4 °F 1004.6 in WNW 11.1 mph 30.6 mph 91 % 0.0 in
17:40 11.6 °F 10.3 °F 1004.6 in WNW 25.9 mph 27.4 mph 92 % 0.3 in
17:46 11.7 °F 10.3 °F 1005.0 in West 16.3 mph 41.8 mph 91 % 0.3 in
17:52 11.9 °F 10.1 °F 1005.0 in West 22.7 mph 30.6 mph 89 % 0.3 in
17:58 11.8 °F 10.2 °F 1005.0 in West 20.9 mph 20.9 mph 90 % 0.3 in
18:04 11.7 °F 10.3 °F 1005.0 in WSW 20.9 mph 20.9 mph 91 % 0.3 in
18:10 11.8 °F 10.2 °F 1005.0 in West 20.9 mph 43.4 mph 90 % 0.3 in
18:16 11.8 °F 10.2 °F 1005.0 in WNW 19.5 mph 33.8 mph 90 % 0.3 in
18:22 11.9 °F 10.1 °F 1005.0 in West 11.1 mph 33.8 mph 89 % 0.3 in
18:28 11.8 °F 10.2 °F 1005.3 in WSW 4.7 mph 29.0 mph 90 % 0.3 in
18:34 11.7 °F 10.4 °F 1005.3 in West 17.7 mph 25.7 mph 92 % 0.3 in
18:40 11.7 °F 10.4 °F 1005.0 in West 11.1 mph 33.8 mph 92 % 0.0 in
18:46 11.7 °F 10.4 °F 1005.0 in WSW 16.3 mph 22.5 mph 92 % 0.3 in
18:52 11.7 °F 10.4 °F 1005.3 in WSW 13.0 mph 27.4 mph 92 % 0.3 in
18:58 11.5 °F 10.4 °F 1005.3 in WSW 11.1 mph 24.1 mph 93 % 0.3 in
19:04 11.4 °F 10.3 °F 1005.3 in West 13.0 mph 24.1 mph 93 % 0.3 in
19:10 11.6 °F 10.5 °F 1005.0 in West 19.5 mph 27.4 mph 93 % 0.3 in
19:16 11.6 °F 10.5 °F 1005.3 in WNW 13.0 mph 17.7 mph 93 % 0.3 in
19:22 11.4 °F 10.3 °F 1005.0 in WSW 13.0 mph 19.3 mph 93 % 0.5 in
19:28 11.4 °F 10.5 °F 1005.3 in WSW 16.3 mph 19.3 mph 94 % 0.5 in
19:34 11.3 °F 10.4 °F 1005.3 in WSW 17.7 mph 19.3 mph 94 % 1.0 in
19:40 11.3 °F 10.5 °F 1005.0 in West 11.1 mph 27.4 mph 95 % 1.3 in
19:46 11.3 °F 10.5 °F 1005.3 in West 16.3 mph 22.5 mph 95 % 1.3 in
19:52 11.3 °F 10.5 °F 1005.3 in West 14.3 mph 20.9 mph 95 % 1.3 in
19:58 11.4 °F 10.6 °F 1005.3 in West 19.5 mph 20.9 mph 95 % 1.5 in
20:04 11.3 °F 10.5 °F 1005.3 in West 19.5 mph 30.6 mph 95 % 1.5 in
20:10 11.3 °F 10.5 °F 1005.3 in West 16.3 mph 24.1 mph 95 % 1.5 in
20:16 11.3 °F 10.5 °F 1005.3 in West 16.3 mph 25.7 mph 95 % 1.8 in
20:22 11.4 °F 10.6 °F 1005.3 in West 16.3 mph 38.6 mph 95 % 1.5 in
20:28 11.4 °F 10.5 °F 1005.3 in West 16.3 mph 29.0 mph 94 % 1.5 in
20:34 11.7 °F 10.6 °F 1005.3 in WNW 16.3 mph 37.0 mph 93 % 1.0 in
20:40 11.7 °F 10.6 °F 1005.3 in West 14.3 mph 30.6 mph 93 % 1.0 in
20:46 11.7 °F 10.6 °F 1005.3 in WSW 22.7 mph 38.6 mph 93 % 1.0 in
20:52 11.7 °F 10.4 °F 1005.6 in NW 13.0 mph 22.5 mph 92 % 1.0 in
20:58 11.8 °F 10.5 °F 1005.6 in WSW 20.9 mph 30.6 mph 92 % 0.8 in
21:04 11.9 °F 10.5 °F 1005.6 in WNW 28.8 mph 40.2 mph 91 % 0.8 in
21:10 12.0 °F 10.2 °F 1006.0 in WNW 28.8 mph 49.9 mph 89 % 0.5 in
21:16 11.8 °F 10.2 °F 1006.0 in West 33.8 mph 46.7 mph 90 % 0.8 in
21:22 11.6 °F 10.2 °F 1006.3 in NNW 16.3 mph 30.6 mph 91 % 0.8 in
21:28 11.5 °F 9.6 °F 1006.3 in WNW 24.1 mph 56.3 mph 88 % 1.3 in
21:34 11.8 °F 9.2 °F 1006.3 in WNW 27.4 mph 43.4 mph 84 % 1.5 in
21:40 11.7 °F 9.1 °F 1006.3 in WNW 14.3 mph 38.6 mph 84 % 1.3 in
21:46 11.6 °F 9.0 °F 1006.7 in WNW 28.8 mph 43.4 mph 84 % 1.0 in
21:52 11.5 °F 8.7 °F 1006.7 in West 28.8 mph 38.6 mph 83 % 1.0 in
21:58 11.3 °F 8.7 °F 1006.7 in WNW 20.9 mph 24.1 mph 84 % 1.0 in
22:04 11.3 °F 8.7 °F 1006.7 in West 16.3 mph 37.0 mph 84 % 1.0 in
22:10 11.2 °F 8.8 °F 1006.7 in West 20.9 mph 25.7 mph 85 % 1.0 in
22:16 11.2 °F 8.8 °F 1007.0 in West 14.3 mph 33.8 mph 85 % 0.5 in
22:22 11.2 °F 8.8 °F 1007.0 in West 11.1 mph 30.6 mph 85 % 0.5 in
22:28 11.1 °F 9.0 °F 1007.0 in West 27.4 mph 35.4 mph 87 % 0.3 in
22:34 10.8 °F 9.2 °F 1007.3 in WSW 13.0 mph 22.5 mph 90 % 0.0 in
22:40 10.8 °F 9.1 °F 1007.3 in West 9.7 mph 27.4 mph 89 % 0.0 in
22:46 10.9 °F 9.0 °F 1007.3 in West 22.7 mph 27.4 mph 88 % 0.0 in
22:52 11.0 °F 8.9 °F 1007.3 in WNW 11.1 mph 37.0 mph 87 % 0.0 in
22:58 11.1 °F 9.0 °F 1007.3 in West 20.9 mph 27.4 mph 87 % 0.0 in
23:04 11.2 °F 8.9 °F 1007.3 in NW 27.4 mph 37.0 mph 86 % 0.0 in
23:10 11.2 °F 8.6 °F 1007.3 in WSW 20.9 mph 41.8 mph 84 % 0.0 in
23:16 11.2 °F 8.6 °F 1007.3 in WNW 24.1 mph 48.3 mph 84 % 0.0 in
23:22 11.0 °F 8.4 °F 1008.0 in West 40.4 mph 41.8 mph 84 % 0.0 in
23:28 10.9 °F 8.1 °F 1008.0 in WNW 33.8 mph 53.1 mph 83 % 0.0 in
23:34 10.7 °F 8.1 °F 1008.4 in NW 25.9 mph 35.4 mph 84 % 0.0 in
23:40 10.6 °F 8.0 °F 1008.7 in WNW 22.7 mph 56.3 mph 84 % 0.0 in
23:46 10.4 °F 7.8 °F 1009.0 in WNW 13.0 mph 32.2 mph 84 % 0.0 in
23:52 10.3 °F 7.5 °F 1009.0 in West 22.7 mph 40.2 mph 83 % 0.0 in
23:58 10.2 °F 7.6 °F 1009.0 in WNW 11.1 mph 30.6 mph 84 % 0.0 in
Meteo18
Compliments of Weather Underground - 4 mb

Script developed by  Jim McMurry - jmcmurry@mwt.net Adapted for the template by  Wim van der Kuil - Leuven-Template.eu

You find our weather info also at:

European Weather Network

Weather Underground

Equipment we use:

Weather-station
Davis Vue

Weather-program
Meteobridge

Weather-server
Raspberry PI 2 B+

Provider
1 and 1

Davis Vue

Meteobridge

Raspberry PI 2 B+

1 and 1